Time,TemperatureF,DewpointF,PressureIn,WindDirection,WindDirectionDegrees,WindSpeedMPH,WindSpeedGustMPH,Humidity,HourlyPrecipIn,Conditions,Clouds,dailyrainin,SoftwareType,DateUTC
2013-05-01 00:01:00,45.1,35.2,30.34,West,266,0.0,0.0,68,0.00,,---,0.00,VWS V14.01,2013-05-01 04:01:00,
2013-05-01 00:06:00,45.1,35.5,30.35,West,268,0.0,0.0,69,0.00,,---,0.00,VWS V14.01,2013-05-01 04:06:00,
2013-05-01 00:11:00,45.2,35.7,30.34,West,268,0.0,0.0,69,0.00,,---,0.00,VWS V14.01,2013-05-01 04:11:00,
2013-05-01 00:16:00,45.0,35.1,30.34,West,269,0.0,0.0,68,0.00,,---,0.00,VWS V14.01,2013-05-01 04:16:00,
2013-05-01 00:21:00,44.7,34.8,30.35,West,269,0.0,0.0,68,0.00,,---,0.00,VWS V14.01,2013-05-01 04:21:00,
2013-05-01 00:26:00,44.5,35.3,30.35,West,269,0.0,0.0,70,0.00,,---,0.00,VWS V14.01,2013-05-01 04:26:00,
2013-05-01 00:31:00,44.3,35.2,30.35,SSW,210,0.0,0.0,70,0.00,,---,0.00,VWS V14.01,2013-05-01 04:31:00,
2013-05-01 00:36:00,44.1,35.3,30.36,SSW,210,0.0,0.0,71,0.00,,---,0.00,VWS V14.01,2013-05-01 04:36:00,
2013-05-01 00:41:00,43.9,35.8,30.36,SSW,210,0.0,0.0,73,0.00,,---,0.00,VWS V14.01,2013-05-01 04:41:00,
2013-05-01 00:46:00,43.7,36.0,30.36,SSW,210,0.0,0.0,74,0.00,,---,0.00,VWS V14.01,2013-05-01 04:46:00,
2013-05-01 00:51:00,43.5,35.8,30.36,SSW,210,0.0,0.0,74,0.00,,---,0.00,VWS V14.01,2013-05-01 04:51:00,
2013-05-01 00:56:00,43.3,35.9,30.36,SSW,210,0.0,0.0,75,0.00,,---,0.00,VWS V14.01,2013-05-01 04:56:00,
2013-05-01 01:01:00,43.1,35.7,30.36,SSW,210,0.0,0.0,75,0.00,,---,0.00,VWS V14.01,2013-05-01 05:01:00,
2013-05-01 01:06:00,42.9,35.5,30.36,SSW,210,0.0,0.0,75,0.00,,---,0.00,VWS V14.01,2013-05-01 05:06:00,
2013-05-01 01:11:00,42.7,35.3,30.36,SSW,210,0.0,0.0,75,0.00,,---,0.00,VWS V14.01,2013-05-01 05:11:00,
2013-05-01 01:16:00,42.5,35.5,30.36,SSW,210,0.0,0.0,76,0.00,,---,0.00,VWS V14.01,2013-05-01 05:16:00,
2013-05-01 01:21:00,42.5,35.5,30.36,SSW,210,0.0,0.0,76,0.00,,---,0.00,VWS V14.01,2013-05-01 05:21:00,
2013-05-01 01:26:00,42.6,35.6,30.36,SSW,210,0.0,0.0,76,0.00,,---,0.00,VWS V14.01,2013-05-01 05:26:00,
2013-05-01 01:31:00,42.6,35.9,30.36,SSW,210,0.0,0.0,77,0.00,,---,0.00,VWS V14.01,2013-05-01 05:31:00,
2013-05-01 01:36:00,42.5,35.5,30.36,SSW,210,0.0,0.0,76,0.00,,---,0.00,VWS V14.01,2013-05-01 05:36:00,
2013-05-01 01:41:00,42.2,35.2,30.36,SSW,210,0.0,0.0,76,0.00,,---,0.00,VWS V14.01,2013-05-01 05:41:00,
2013-05-01 01:46:00,42.0,35.0,30.36,SSW,210,0.0,0.0,76,0.00,,---,0.00,VWS V14.01,2013-05-01 05:46:00,
2013-05-01 01:51:00,41.8,34.8,30.36,SSW,210,0.0,0.0,76,0.00,,---,0.00,VWS V14.01,2013-05-01 05:51:00,
2013-05-01 01:56:00,41.5,34.5,30.36,South,191,0.0,0.0,76,0.00,,---,0.00,VWS V14.01,2013-05-01 05:56:00,
2013-05-01 02:01:00,41.3,34.7,30.36,South,191,0.0,0.0,77,0.00,,---,0.00,VWS V14.01,2013-05-01 06:01:00,
2013-05-01 02:06:00,41.2,34.5,30.36,South,191,0.0,0.0,77,0.00,,---,0.00,VWS V14.01,2013-05-01 06:06:00,
2013-05-01 02:11:00,41.0,34.3,30.36,South,191,0.0,0.0,77,0.00,,---,0.00,VWS V14.01,2013-05-01 06:11:00,
2013-05-01 02:16:00,40.8,34.5,30.37,South,191,0.0,0.0,78,0.00,,---,0.00,VWS V14.01,2013-05-01 06:16:00,
2013-05-01 02:21:00,40.6,34.6,30.37,South,191,0.0,0.0,79,0.00,,---,0.00,VWS V14.01,2013-05-01 06:21:00,
2013-05-01 02:26:00,40.4,34.4,30.36,South,186,0.0,0.0,79,0.00,,---,0.00,VWS V14.01,2013-05-01 06:26:00,
2013-05-01 02:31:00,40.2,34.2,30.36,South,186,0.0,0.0,79,0.00,,---,0.00,VWS V14.01,2013-05-01 06:31:00,
2013-05-01 02:36:00,40.1,34.4,30.36,South,186,0.0,0.0,80,0.00,,---,0.00,VWS V14.01,2013-05-01 06:36:00,
2013-05-01 02:41:00,40.0,34.3,30.36,South,186,0.0,0.0,80,0.00,,---,0.00,VWS V14.01,2013-05-01 06:41:00,
2013-05-01 02:46:00,39.9,34.2,30.36,South,186,0.0,0.0,80,0.00,,---,0.00,VWS V14.01,2013-05-01 06:46:00,
2013-05-01 02:51:00,39.7,34.0,30.36,South,186,0.0,0.0,80,0.00,,---,0.00,VWS V14.01,2013-05-01 06:51:00,
2013-05-01 02:56:00,39.6,34.3,30.37,South,186,0.0,0.0,81,0.00,,---,0.00,VWS V14.01,2013-05-01 06:56:00,
2013-05-01 03:01:00,39.5,34.2,30.37,South,186,0.0,0.0,81,0.00,,---,0.00,VWS V14.01,2013-05-01 07:01:00,
2013-05-01 03:06:00,39.3,34.0,30.37,South,186,0.0,0.0,81,0.00,,---,0.00,VWS V14.01,2013-05-01 07:06:00,
2013-05-01 03:11:00,39.2,33.9,30.37,South,186,0.0,0.0,81,0.00,,---,0.00,VWS V14.01,2013-05-01 07:11:00,
2013-05-01 03:16:00,39.2,34.8,30.37,South,186,0.0,0.0,84,0.00,,---,0.00,VWS V14.01,2013-05-01 07:16:00,
2013-05-01 03:21:00,39.4,34.7,30.37,South,186,0.0,0.0,83,0.00,,---,0.00,VWS V14.01,2013-05-01 07:21:00,
2013-05-01 03:26:00,39.4,34.7,30.37,South,186,0.0,0.0,83,0.00,,---,0.00,VWS V14.01,2013-05-01 07:26:00,
2013-05-01 03:31:00,39.2,34.5,30.37,South,186,0.0,0.0,83,0.00,,---,0.00,VWS V14.01,2013-05-01 07:31:00,
2013-05-01 03:36:00,39.0,34.3,30.37,South,186,0.0,0.0,83,0.00,,---,0.00,VWS V14.01,2013-05-01 07:36:00,
2013-05-01 03:41:00,38.9,34.8,30.38,South,186,0.0,0.0,85,0.00,,---,0.00,VWS V14.01,2013-05-01 07:41:00,
2013-05-01 03:46:00,38.7,34.3,30.38,South,186,0.0,0.0,84,0.00,,---,0.00,VWS V14.01,2013-05-01 07:46:00,
2013-05-01 03:51:00,38.5,34.4,30.38,South,186,0.0,0.0,85,0.00,,---,0.00,VWS V14.01,2013-05-01 07:51:00,
2013-05-01 03:56:00,38.5,34.7,30.38,South,186,0.0,0.0,86,0.00,,---,0.00,VWS V14.01,2013-05-01 07:56:00,
2013-05-01 04:01:00,38.4,34.6,30.38,South,186,0.0,0.0,86,0.00,,---,0.00,VWS V14.01,2013-05-01 08:01:00,
2013-05-01 04:06:00,38.4,34.6,30.38,South,186,0.0,0.0,86,0.00,,---,0.00,VWS V14.01,2013-05-01 08:06:00,
2013-05-01 04:11:00,38.2,34.1,30.38,South,186,0.0,0.0,85,0.00,,---,0.00,VWS V14.01,2013-05-01 08:11:00,
2013-05-01 04:16:00,37.9,34.1,30.38,South,186,0.0,0.0,86,0.00,,---,0.00,VWS V14.01,2013-05-01 08:16:00,
2013-05-01 04:21:00,37.7,34.2,30.38,South,186,0.0,0.0,87,0.00,,---,0.00,VWS V14.01,2013-05-01 08:21:00,
2013-05-01 04:26:00,37.7,34.5,30.39,South,186,0.0,0.0,88,0.00,,---,0.00,VWS V14.01,2013-05-01 08:26:00,
2013-05-01 04:31:00,37.7,34.2,30.39,South,186,0.0,0.0,87,0.00,,---,0.00,VWS V14.01,2013-05-01 08:31:00,
2013-05-01 04:36:00,37.7,34.5,30.39,South,186,0.0,0.0,88,0.00,,---,0.00,VWS V14.01,2013-05-01 08:36:00,
2013-05-01 04:41:00,37.9,34.7,30.39,South,186,0.0,0.0,88,0.00,,---,0.00,VWS V14.01,2013-05-01 08:41:00,
2013-05-01 04:46:00,37.8,34.6,30.39,South,186,0.0,0.0,88,0.00,,---,0.00,VWS V14.01,2013-05-01 08:46:00,
2013-05-01 04:51:00,37.7,34.5,30.38,South,186,0.0,0.0,88,0.00,,---,0.00,VWS V14.01,2013-05-01 08:51:00,
2013-05-01 04:56:00,37.8,34.6,30.38,South,186,0.0,0.0,88,0.00,,---,0.00,VWS V14.01,2013-05-01 08:56:00,
2013-05-01 05:01:00,37.8,34.6,30.39,South,186,0.0,0.0,88,0.00,,---,0.00,VWS V14.01,2013-05-01 09:01:00,
2013-05-01 05:06:00,37.7,34.2,30.39,South,186,0.0,0.0,87,0.00,,---,0.00,VWS V14.01,2013-05-01 09:06:00,
2013-05-01 05:11:00,37.5,34.0,30.39,South,186,0.0,0.0,87,0.00,,---,0.00,VWS V14.01,2013-05-01 09:11:00,
2013-05-01 05:16:00,37.3,34.1,30.39,South,186,0.0,0.0,88,0.00,,---,0.00,VWS V14.01,2013-05-01 09:16:00,
2013-05-01 05:21:00,37.2,34.0,30.39,South,186,0.0,0.0,88,0.00,,---,0.00,VWS V14.01,2013-05-01 09:21:00,
2013-05-01 05:26:00,37.1,33.9,30.39,South,186,0.0,0.0,88,0.00,,---,0.00,VWS V14.01,2013-05-01 09:26:00,
2013-05-01 05:31:00,36.9,33.7,30.40,South,186,0.0,0.0,88,0.00,,---,0.00,VWS V14.01,2013-05-01 09:31:00,
2013-05-01 05:36:00,36.8,33.6,30.40,South,186,0.0,0.0,88,0.00,,---,0.00,VWS V14.01,2013-05-01 09:36:00,
2013-05-01 05:41:00,36.7,33.8,30.40,South,186,0.0,0.0,89,0.00,,---,0.00,VWS V14.01,2013-05-01 09:41:00,
2013-05-01 05:46:00,36.6,33.7,30.40,South,186,0.0,0.0,89,0.00,,---,0.00,VWS V14.01,2013-05-01 09:46:00,
2013-05-01 05:51:00,36.4,33.5,30.40,South,186,0.0,0.0,89,0.00,,---,0.00,VWS V14.01,2013-05-01 09:51:00,
2013-05-01 05:55:00,36.4,33.5,30.41,South,186,0.0,0.0,89,0.00,,---,0.00,VWS V14.01,2013-05-01 09:55:00,
2013-05-01 06:00:00,36.3,33.7,30.41,South,186,0.0,0.0,90,0.00,,---,0.00,VWS V14.01,2013-05-01 10:00:00,
2013-05-01 06:05:00,36.3,33.7,30.41,South,186,0.0,0.0,90,0.00,,---,0.00,VWS V14.01,2013-05-01 10:05:00,
2013-05-01 06:10:00,36.2,33.6,30.41,South,186,0.0,0.0,90,0.00,,---,0.00,VWS V14.01,2013-05-01 10:10:00,
2013-05-01 06:15:00,36.3,33.9,30.41,South,186,0.0,0.0,91,0.00,,---,0.00,VWS V14.01,2013-05-01 10:15:00,
2013-05-01 06:20:00,36.3,33.9,30.41,South,186,0.0,0.0,91,0.00,,---,0.00,VWS V14.01,2013-05-01 10:20:00,
2013-05-01 06:25:00,36.4,34.0,30.41,South,186,0.0,0.0,91,0.00,,---,0.00,VWS V14.01,2013-05-01 10:25:00,
2013-05-01 06:30:00,36.5,34.1,30.42,South,186,0.0,0.0,91,0.00,,---,0.00,VWS V14.01,2013-05-01 10:30:00,
2013-05-01 06:35:00,36.7,34.6,30.42,South,186,0.0,0.0,92,0.00,,---,0.00,VWS V14.01,2013-05-01 10:35:00,
2013-05-01 06:40:00,36.9,34.8,30.42,South,186,0.0,0.0,92,0.00,,---,0.00,VWS V14.01,2013-05-01 10:40:00,
2013-05-01 06:45:00,37.1,34.4,30.42,South,186,0.0,0.0,90,0.00,,---,0.00,VWS V14.01,2013-05-01 10:45:00,
2013-05-01 06:50:00,37.5,34.8,30.42,South,186,0.0,0.0,90,0.00,,---,0.00,VWS V14.01,2013-05-01 10:50:00,
2013-05-01 06:55:00,38.0,34.5,30.43,South,186,0.0,0.0,87,0.00,,---,0.00,VWS V14.01,2013-05-01 10:55:00,
2013-05-01 07:00:00,38.5,34.4,30.43,South,186,0.0,0.0,85,0.00,,---,0.00,VWS V14.01,2013-05-01 11:00:00,
2013-05-01 07:05:00,38.9,34.5,30.43,South,186,0.0,0.0,84,0.00,,---,0.00,VWS V14.01,2013-05-01 11:05:00,
2013-05-01 07:10:00,39.3,34.6,30.43,South,186,0.0,0.0,83,0.00,,---,0.00,VWS V14.01,2013-05-01 11:10:00,
2013-05-01 07:15:00,39.8,34.8,30.43,South,186,0.0,0.0,82,0.00,,---,0.00,VWS V14.01,2013-05-01 11:15:00,
2013-05-01 07:20:00,40.4,34.7,30.43,South,186,0.0,0.0,80,0.00,,---,0.00,VWS V14.01,2013-05-01 11:20:00,
2013-05-01 07:25:00,40.9,34.6,30.43,South,186,0.0,0.0,78,0.00,,---,0.00,VWS V14.01,2013-05-01 11:25:00,
2013-05-01 07:30:00,41.5,35.2,30.44,South,186,0.0,0.0,78,0.00,,---,0.00,VWS V14.01,2013-05-01 11:30:00,
2013-05-01 07:35:00,42.3,35.3,30.44,South,186,0.0,0.0,76,0.00,,---,0.00,VWS V14.01,2013-05-01 11:35:00,
2013-05-01 07:40:00,43.1,35.4,30.44,South,186,0.0,0.0,74,0.00,,---,0.00,VWS V14.01,2013-05-01 11:40:00,
2013-05-01 07:45:00,43.8,35.0,30.44,SE,138,0.0,0.0,71,0.00,,---,0.00,VWS V14.01,2013-05-01 11:45:00,
2013-05-01 07:50:00,44.3,35.5,30.44,SE,138,0.0,0.0,71,0.00,,---,0.00,VWS V14.01,2013-05-01 11:50:00,
2013-05-01 07:55:00,44.9,35.4,30.44,SE,138,0.0,0.0,69,0.00,,---,0.00,VWS V14.01,2013-05-01 11:55:00,
2013-05-01 08:00:00,45.5,35.2,30.45,SE,138,0.0,0.0,67,0.00,,---,0.00,VWS V14.01,2013-05-01 12:00:00,
2013-05-01 08:05:00,46.3,35.2,30.45,SE,138,0.0,0.0,65,0.00,,---,0.00,VWS V14.01,2013-05-01 12:05:00,
2013-05-01 08:10:00,47.1,35.6,30.45,SE,139,0.0,0.0,64,0.00,,---,0.00,VWS V14.01,2013-05-01 12:10:00,
2013-05-01 08:15:00,47.9,35.9,30.45,SE,139,0.0,0.0,63,0.00,,---,0.00,VWS V14.01,2013-05-01 12:15:00,
2013-05-01 08:20:00,49.1,35.4,30.45,SE,138,0.0,0.0,59,0.00,,---,0.00,VWS V14.01,2013-05-01 12:20:00,
2013-05-01 08:25:00,50.2,34.2,30.45,NE,45,0.0,0.0,54,0.00,,---,0.00,VWS V14.01,2013-05-01 12:25:00,
2013-05-01 08:30:00,51.1,33.1,30.45,NNE,32,0.0,0.0,50,0.00,,---,0.00,VWS V14.01,2013-05-01 12:30:00,
2013-05-01 08:35:00,51.9,31.8,30.45,NE,37,0.0,0.0,46,0.00,,---,0.00,VWS V14.01,2013-05-01 12:35:00,
2013-05-01 08:40:00,52.8,32.1,30.45,NE,36,1.0,2.0,45,0.00,,---,0.00,VWS V14.01,2013-05-01 12:40:00,
2013-05-01 08:45:00,53.4,30.9,30.45,NE,40,2.0,3.0,42,0.00,,---,0.00,VWS V14.01,2013-05-01 12:45:00,
2013-05-01 08:50:00,53.9,30.8,30.45,NNE,28,3.0,3.0,41,0.00,,---,0.00,VWS V14.01,2013-05-01 12:50:00,
2013-05-01 08:55:00,54.4,30.6,30.45,NNE,28,2.0,4.0,40,0.00,,---,0.00,VWS V14.01,2013-05-01 12:55:00,
2013-05-01 09:00:00,54.8,30.3,30.45,NE,39,2.0,4.0,39,0.00,,---,0.00,VWS V14.01,2013-05-01 13:00:00,
2013-05-01 09:05:00,55.2,30.7,30.45,NNE,23,1.0,3.0,39,0.00,,---,0.00,VWS V14.01,2013-05-01 13:05:00,
2013-05-01 09:10:00,55.9,31.3,30.45,NNE,30,2.0,3.0,39,0.00,,---,0.00,VWS V14.01,2013-05-01 13:10:00,
2013-05-01 09:15:00,56.2,31.0,30.45,NNE,33,1.0,3.0,38,0.00,,---,0.00,VWS V14.01,2013-05-01 13:15:00,
2013-05-01 09:20:00,56.6,30.6,30.45,NNE,31,2.0,3.0,37,0.00,,---,0.00,VWS V14.01,2013-05-01 13:20:00,
2013-05-01 09:25:00,57.0,31.0,30.45,NE,40,0.0,3.0,37,0.00,,---,0.00,VWS V14.01,2013-05-01 13:25:00,
2013-05-01 09:30:00,57.4,30.7,30.45,NE,45,1.0,3.0,36,0.00,,---,0.00,VWS V14.01,2013-05-01 13:30:00,
2013-05-01 09:35:00,57.7,30.3,30.45,NE,37,2.0,2.0,35,0.00,,---,0.00,VWS V14.01,2013-05-01 13:35:00,
2013-05-01 09:40:00,58.2,30.0,30.45,South,181,1.0,2.0,34,0.00,,---,0.00,VWS V14.01,2013-05-01 13:40:00,
2013-05-01 09:45:00,58.7,28.9,30.45,NNE,26,2.0,3.0,32,0.00,,---,0.00,VWS V14.01,2013-05-01 13:45:00,
2013-05-01 09:50:00,59.0,29.2,30.45,NNE,27,3.0,3.0,32,0.00,,---,0.00,VWS V14.01,2013-05-01 13:50:00,
2013-05-01 09:55:00,59.2,28.6,30.45,NE,44,2.0,4.0,31,0.00,,---,0.00,VWS V14.01,2013-05-01 13:55:00,
2013-05-01 10:00:00,59.1,26.9,30.45,NNE,32,4.0,7.0,29,0.00,,---,0.00,VWS V14.01,2013-05-01 14:00:00,
2013-05-01 10:05:00,59.6,27.3,30.45,NNE,29,2.0,4.0,29,0.00,,---,0.00,VWS V14.01,2013-05-01 14:05:00,
2013-05-01 10:10:00,59.9,27.6,30.45,NNE,18,4.0,4.0,29,0.00,,---,0.00,VWS V14.01,2013-05-01 14:10:00,
2013-05-01 10:15:00,60.3,27.1,30.45,East,90,2.0,4.0,28,0.00,,---,0.00,VWS V14.01,2013-05-01 14:15:00,
2013-05-01 10:20:00,60.9,25.8,30.45,ENE,72,2.0,4.0,26,0.00,,---,0.00,VWS V14.01,2013-05-01 14:20:00,
2013-05-01 10:25:00,61.7,27.4,30.45,ENE,72,2.0,4.0,27,0.00,,---,0.00,VWS V14.01,2013-05-01 14:25:00,
2013-05-01 10:30:00,61.5,29.8,30.45,ENE,68,4.0,4.0,30,0.00,,---,0.00,VWS V14.01,2013-05-01 14:30:00,
2013-05-01 10:35:00,62.0,28.5,30.45,NE,53,2.0,3.0,28,0.00,,---,0.00,VWS V14.01,2013-05-01 14:35:00,
2013-05-01 10:40:00,62.0,28.5,30.45,NE,44,4.0,4.0,28,0.00,,---,0.00,VWS V14.01,2013-05-01 14:40:00,
2013-05-01 10:45:00,62.2,24.0,30.45,East,100,1.0,8.0,23,0.00,,---,0.00,VWS V14.01,2013-05-01 14:45:00,
2013-05-01 10:50:00,62.7,25.4,30.45,ENE,61,3.0,8.0,24,0.00,,---,0.00,VWS V14.01,2013-05-01 14:50:00,
2013-05-01 10:55:00,63.4,27.0,30.45,NE,37,0.0,8.0,25,0.00,,---,0.00,VWS V14.01,2013-05-01 14:55:00,
2013-05-01 11:00:00,64.2,25.7,30.45,ENE,63,6.0,8.0,23,0.00,,---,0.00,VWS V14.01,2013-05-01 15:00:00,
2013-05-01 11:05:00,64.2,26.7,30.45,NE,47,2.0,4.0,24,0.00,,---,0.00,VWS V14.01,2013-05-01 15:05:00,
2013-05-01 11:10:00,63.9,25.4,30.45,NNE,20,2.0,4.0,23,0.00,,---,0.00,VWS V14.01,2013-05-01 15:10:00,
2013-05-01 11:15:00,64.1,26.6,30.45,NNE,18,1.0,4.0,24,0.00,,---,0.00,VWS V14.01,2013-05-01 15:15:00,
2013-05-01 11:20:00,65.0,26.3,30.44,ESE,110,1.0,4.0,23,0.00,,---,0.00,VWS V14.01,2013-05-01 15:20:00,
2013-05-01 11:25:00,65.1,27.4,30.44,NNE,23,3.0,6.0,24,0.00,,---,0.00,VWS V14.01,2013-05-01 15:25:00,
2013-05-01 11:30:00,65.0,28.4,30.44,NE,41,2.0,6.0,25,0.00,,---,0.00,VWS V14.01,2013-05-01 15:30:00,
2013-05-01 11:35:00,65.3,28.6,30.44,ENE,75,1.0,4.0,25,0.00,,---,0.00,VWS V14.01,2013-05-01 15:35:00,
2013-05-01 11:40:00,65.9,29.1,30.44,SE,145,1.0,4.0,25,0.00,,---,0.00,VWS V14.01,2013-05-01 15:40:00,
2013-05-01 11:45:00,66.2,28.4,30.44,ENE,67,2.0,5.0,24,0.00,,---,0.00,VWS V14.01,2013-05-01 15:45:00,
2013-05-01 11:50:00,66.1,29.3,30.44,SSE,158,1.0,5.0,25,0.00,,---,0.00,VWS V14.01,2013-05-01 15:50:00,
2013-05-01 11:55:00,66.5,29.6,30.44,SE,142,1.0,5.0,25,0.00,,---,0.00,VWS V14.01,2013-05-01 15:55:00,
2013-05-01 12:00:00,66.7,29.8,30.44,South,181,3.0,5.0,25,0.00,,---,0.00,VWS V14.01,2013-05-01 16:00:00,
2013-05-01 12:05:00,66.6,30.7,30.44,ENE,75,1.0,5.0,26,0.00,,---,0.00,VWS V14.01,2013-05-01 16:05:00,
2013-05-01 12:10:00,67.6,31.5,30.44,SSE,147,3.0,5.0,26,0.00,,---,0.00,VWS V14.01,2013-05-01 16:10:00,
2013-05-01 12:15:00,67.7,29.6,30.44,SSE,149,2.0,5.0,24,0.00,,---,0.00,VWS V14.01,2013-05-01 16:15:00,
2013-05-01 12:20:00,67.6,30.6,30.44,NE,47,4.0,5.0,25,0.00,,---,0.00,VWS V14.01,2013-05-01 16:20:00,
2013-05-01 12:25:00,66.9,29.0,30.44,ENE,65,1.0,5.0,24,0.00,,---,0.00,VWS V14.01,2013-05-01 16:25:00,
2013-05-01 12:30:00,66.3,29.5,30.43,ENE,58,3.0,8.0,25,0.00,,---,0.00,VWS V14.01,2013-05-01 16:30:00,
2013-05-01 12:35:00,65.8,30.0,30.43,NE,46,3.0,6.0,26,0.00,,---,0.00,VWS V14.01,2013-05-01 16:35:00,
2013-05-01 12:40:00,66.3,30.4,30.44,NE,39,3.0,6.0,26,0.00,,---,0.00,VWS V14.01,2013-05-01 16:40:00,
2013-05-01 12:45:00,66.6,31.6,30.43,ESE,120,1.0,6.0,27,0.00,,---,0.00,VWS V14.01,2013-05-01 16:45:00,
2013-05-01 12:50:00,67.2,31.2,30.44,ENE,58,0.0,6.0,26,0.00,,---,0.00,VWS V14.01,2013-05-01 16:50:00,
2013-05-01 12:55:00,67.7,32.5,30.43,West,281,1.0,6.0,27,0.00,,---,0.00,VWS V14.01,2013-05-01 16:55:00,
2013-05-01 13:00:00,68.2,32.0,30.43,South,174,1.0,6.0,26,0.00,,---,0.00,VWS V14.01,2013-05-01 17:00:00,
2013-05-01 13:05:00,68.4,33.1,30.44,ESE,104,1.0,3.0,27,0.00,,---,0.00,VWS V14.01,2013-05-01 17:05:00,
2013-05-01 13:10:00,69.1,32.8,30.43,NNW,327,1.0,3.0,26,0.00,,---,0.00,VWS V14.01,2013-05-01 17:10:00,
2013-05-01 13:15:00,69.5,35.0,30.43,WNW,297,3.0,4.0,28,0.00,,---,0.00,VWS V14.01,2013-05-01 17:15:00,
2013-05-01 13:20:00,69.6,33.2,30.43,ENE,65,3.0,5.0,26,0.00,,---,0.00,VWS V14.01,2013-05-01 17:20:00,
2013-05-01 13:25:00,69.2,33.8,30.43,East,84,1.0,5.0,27,0.00,,---,0.00,VWS V14.01,2013-05-01 17:25:00,
2013-05-01 13:30:00,69.9,35.3,30.43,East,93,2.0,5.0,28,0.00,,---,0.00,VWS V14.01,2013-05-01 17:30:00,
2013-05-01 13:35:00,69.7,35.2,30.43,NNE,33,2.0,4.0,28,0.00,,---,0.00,VWS V14.01,2013-05-01 17:35:00,
2013-05-01 13:40:00,68.6,37.6,30.43,SE,128,3.0,6.0,32,0.00,,---,0.00,VWS V14.01,2013-05-01 17:40:00,
2013-05-01 13:45:00,68.4,38.2,30.43,NE,37,2.0,6.0,33,0.00,,---,0.00,VWS V14.01,2013-05-01 17:45:00,
2013-05-01 13:50:00,68.8,37.8,30.43,ENE,69,3.0,6.0,32,0.00,,---,0.00,VWS V14.01,2013-05-01 17:50:00,
2013-05-01 13:55:00,69.5,38.4,30.43,East,79,1.0,6.0,32,0.00,,---,0.00,VWS V14.01,2013-05-01 17:55:00,
2013-05-01 14:00:00,69.6,38.5,30.43,NE,39,1.0,6.0,32,0.00,,---,0.00,VWS V14.01,2013-05-01 18:00:00,
2013-05-01 14:05:00,69.6,38.5,30.43,SSE,150,6.0,6.0,32,0.00,,---,0.00,VWS V14.01,2013-05-01 18:05:00,
2013-05-01 14:10:00,70.2,37.3,30.43,ENE,65,4.0,6.0,30,0.00,,---,0.00,VWS V14.01,2013-05-01 18:10:00,
2013-05-01 14:15:00,69.2,37.3,30.43,SE,136,4.0,7.0,31,0.00,,---,0.00,VWS V14.01,2013-05-01 18:15:00,
2013-05-01 14:20:00,69.3,36.6,30.43,SW,233,1.0,7.0,30,0.00,,---,0.00,VWS V14.01,2013-05-01 18:20:00,
2013-05-01 14:25:00,69.5,35.0,30.43,NE,34,2.0,7.0,28,0.00,,---,0.00,VWS V14.01,2013-05-01 18:25:00,
2013-05-01 14:30:00,68.5,35.0,30.43,NE,44,4.0,7.0,29,0.00,,---,0.00,VWS V14.01,2013-05-01 18:30:00,
2013-05-01 14:35:00,68.1,33.8,30.43,ESE,113,1.0,6.0,28,0.00,,---,0.00,VWS V14.01,2013-05-01 18:35:00,
2013-05-01 14:40:00,68.5,30.3,30.42,ESE,120,3.0,9.0,24,0.00,,---,0.00,VWS V14.01,2013-05-01 18:40:00,
2013-05-01 14:45:00,68.9,28.5,30.42,NNE,26,3.0,9.0,22,0.00,,---,0.00,VWS V14.01,2013-05-01 18:45:00,
2013-05-01 14:50:00,68.1,27.9,30.42,NE,35,2.0,9.0,22,0.00,,---,0.00,VWS V14.01,2013-05-01 18:50:00,
2013-05-01 14:55:00,67.4,28.4,30.42,NE,44,5.0,9.0,23,0.00,,---,0.00,VWS V14.01,2013-05-01 18:55:00,
2013-05-01 15:00:00,68.1,31.0,30.42,NE,53,3.0,9.0,25,0.00,,---,0.00,VWS V14.01,2013-05-01 19:00:00,
2013-05-01 15:05:00,68.5,34.1,30.42,NE,49,1.0,6.0,28,0.00,,---,0.00,VWS V14.01,2013-05-01 19:05:00,
2013-05-01 15:10:00,69.1,33.7,30.42,SE,136,0.0,6.0,27,0.00,,---,0.00,VWS V14.01,2013-05-01 19:10:00,
2013-05-01 15:15:00,69.3,34.8,30.43,ENE,70,4.0,6.0,28,0.00,,---,0.00,VWS V14.01,2013-05-01 19:15:00,
2013-05-01 15:20:00,69.6,36.8,30.43,SE,143,0.0,8.0,30,0.00,,---,0.00,VWS V14.01,2013-05-01 19:20:00,
2013-05-01 15:25:00,69.8,37.0,30.42,SW,218,1.0,8.0,30,0.00,,---,0.00,VWS V14.01,2013-05-01 19:25:00,
2013-05-01 15:30:00,70.1,37.3,30.42,NE,44,1.0,8.0,30,0.00,,---,0.00,VWS V14.01,2013-05-01 19:30:00,
2013-05-01 15:35:00,70.6,36.8,30.42,SSE,153,5.0,6.0,29,0.00,,---,0.00,VWS V14.01,2013-05-01 19:35:00,
2013-05-01 15:40:00,70.6,36.8,30.42,NE,43,0.0,6.0,29,0.00,,---,0.00,VWS V14.01,2013-05-01 19:40:00,
2013-05-01 15:45:00,70.8,37.0,30.42,NNE,23,3.0,6.0,29,0.00,,---,0.00,VWS V14.01,2013-05-01 19:45:00,
2013-05-01 15:50:00,70.0,38.8,30.42,NNW,328,2.0,6.0,32,0.00,,---,0.00,VWS V14.01,2013-05-01 19:50:00,
2013-05-01 15:55:00,70.4,39.2,30.41,WNW,300,1.0,6.0,32,0.00,,---,0.00,VWS V14.01,2013-05-01 19:55:00,
2013-05-01 16:00:00,70.1,39.7,30.42,ENE,57,3.0,6.0,33,0.00,,---,0.00,VWS V14.01,2013-05-01 20:00:00,
2013-05-01 16:05:00,70.4,36.7,30.41,NE,39,3.0,5.0,29,0.00,,---,0.00,VWS V14.01,2013-05-01 20:05:00,
2013-05-01 16:10:00,69.4,39.8,30.41,ESE,113,0.0,5.0,34,0.00,,---,0.00,VWS V14.01,2013-05-01 20:10:00,
2013-05-01 16:15:00,69.6,40.0,30.41,South,173,2.0,5.0,34,0.00,,---,0.00,VWS V14.01,2013-05-01 20:15:00,
2013-05-01 16:20:00,69.5,40.7,30.41,West,267,3.0,5.0,35,0.00,,---,0.00,VWS V14.01,2013-05-01 20:20:00,
2013-05-01 16:25:00,69.4,42.7,30.42,South,183,1.0,5.0,38,0.00,,---,0.00,VWS V14.01,2013-05-01 20:25:00,
2013-05-01 16:30:00,68.7,44.1,30.41,West,279,2.0,8.0,41,0.00,,---,0.00,VWS V14.01,2013-05-01 20:30:00,
2013-05-01 16:35:00,68.5,44.5,30.42,ENE,78,2.0,4.0,42,0.00,,---,0.00,VWS V14.01,2013-05-01 20:35:00,
2013-05-01 16:40:00,68.4,44.4,30.41,WNW,302,3.0,6.0,42,0.00,,---,0.00,VWS V14.01,2013-05-01 20:40:00,
2013-05-01 16:45:00,67.6,44.9,30.42,West,276,4.0,9.0,44,0.00,,---,0.00,VWS V14.01,2013-05-01 20:45:00,
2013-05-01 16:50:00,67.3,44.7,30.42,WNW,291,4.0,9.0,44,0.00,,---,0.00,VWS V14.01,2013-05-01 20:50:00,
2013-05-01 16:55:00,67.0,45.0,30.42,SW,228,2.0,9.0,45,0.00,,---,0.00,VWS V14.01,2013-05-01 20:55:00,
2013-05-01 17:00:00,67.4,44.8,30.42,South,177,2.0,9.0,44,0.00,,---,0.00,VWS V14.01,2013-05-01 21:00:00,
2013-05-01 17:05:00,67.5,44.2,30.42,SW,221,1.0,6.0,43,0.00,,---,0.00,VWS V14.01,2013-05-01 21:05:00,
2013-05-01 17:10:00,67.4,44.2,30.42,WSW,253,1.0,6.0,43,0.00,,---,0.00,VWS V14.01,2013-05-01 21:10:00,
2013-05-01 17:15:00,67.2,44.6,30.42,SE,141,0.0,7.0,44,0.00,,---,0.00,VWS V14.01,2013-05-01 21:15:00,
2013-05-01 17:20:00,67.3,45.2,30.43,SW,231,3.0,7.0,45,0.00,,---,0.00,VWS V14.01,2013-05-01 21:20:00,
2013-05-01 17:25:00,66.8,45.4,30.43,WSW,256,4.0,7.0,46,0.00,,---,0.00,VWS V14.01,2013-05-01 21:25:00,
2013-05-01 17:30:00,66.5,44.5,30.43,SSE,159,1.0,7.0,45,0.00,,---,0.00,VWS V14.01,2013-05-01 21:30:00,
2013-05-01 17:35:00,66.2,44.8,30.43,West,268,3.0,5.0,46,0.00,,---,0.00,VWS V14.01,2013-05-01 21:35:00,
2013-05-01 17:40:00,66.1,44.7,30.43,SSW,204,1.0,5.0,46,0.00,,---,0.00,VWS V14.01,2013-05-01 21:40:00,
2013-05-01 17:45:00,65.8,44.5,30.43,SSE,153,1.0,5.0,46,0.00,,---,0.00,VWS V14.01,2013-05-01 21:45:00,
2013-05-01 17:50:00,66.0,45.2,30.43,WSW,243,3.0,5.0,47,0.00,,---,0.00,VWS V14.01,2013-05-01 21:50:00,
2013-05-01 17:55:00,65.6,44.8,30.43,SE,135,3.0,5.0,47,0.00,,---,0.00,VWS V14.01,2013-05-01 21:55:00,
2013-05-01 18:00:00,65.3,45.7,30.43,SW,218,3.0,5.0,49,0.00,,---,0.00,VWS V14.01,2013-05-01 22:00:00,
2013-05-01 18:05:00,65.0,44.8,30.43,SE,134,0.0,4.0,48,0.00,,---,0.00,VWS V14.01,2013-05-01 22:05:00,
2013-05-01 18:10:00,65.0,45.4,30.44,West,260,3.0,4.0,49,0.00,,---,0.00,VWS V14.01,2013-05-01 22:10:00,
2013-05-01 18:15:00,64.9,45.8,30.44,West,276,1.0,4.0,50,0.00,,---,0.00,VWS V14.01,2013-05-01 22:15:00,
2013-05-01 18:20:00,64.6,45.0,30.44,SE,134,2.0,4.0,49,0.00,,---,0.00,VWS V14.01,2013-05-01 22:20:00,
2013-05-01 18:25:00,64.3,44.8,30.44,South,170,2.0,4.0,49,0.00,,---,0.00,VWS V14.01,2013-05-01 22:25:00,
2013-05-01 18:30:00,64.0,45.0,30.44,SSE,158,3.0,5.0,50,0.00,,---,0.00,VWS V14.01,2013-05-01 22:30:00,
2013-05-01 18:35:00,64.0,45.0,30.44,SSW,211,1.0,4.0,50,0.00,,---,0.00,VWS V14.01,2013-05-01 22:35:00,
2013-05-01 18:40:00,63.9,44.9,30.45,West,274,2.0,4.0,50,0.00,,---,0.00,VWS V14.01,2013-05-01 22:40:00,
2013-05-01 18:45:00,63.8,45.3,30.45,West,271,0.0,4.0,51,0.00,,---,0.00,VWS V14.01,2013-05-01 22:45:00,
2013-05-01 18:50:00,63.7,44.7,30.45,SE,139,1.0,4.0,50,0.00,,---,0.00,VWS V14.01,2013-05-01 22:50:00,
2013-05-01 18:55:00,63.5,45.1,30.45,West,274,1.0,4.0,51,0.00,,---,0.00,VWS V14.01,2013-05-01 22:55:00,
2013-05-01 19:00:00,63.8,44.8,30.45,NNW,327,1.0,4.0,50,0.00,,---,0.00,VWS V14.01,2013-05-01 23:00:00,
2013-05-01 19:05:00,63.5,44.5,30.45,West,264,1.0,2.0,50,0.00,,---,0.00,VWS V14.01,2013-05-01 23:05:00,
2013-05-01 19:10:00,63.4,45.0,30.45,WSW,246,0.0,2.0,51,0.00,,---,0.00,VWS V14.01,2013-05-01 23:10:00,
2013-05-01 19:14:00,63.2,44.8,30.45,SE,139,0.0,2.0,51,0.00,,---,0.00,VWS V14.01,2013-05-01 23:14:00,
2013-05-01 19:19:00,62.7,44.8,30.45,SE,127,0.0,2.0,52,0.00,,---,0.00,VWS V14.01,2013-05-01 23:19:00,
2013-05-01 19:24:00,62.1,44.3,30.45,WNW,293,1.0,3.0,52,0.00,,---,0.00,VWS V14.01,2013-05-01 23:24:00,
2013-05-01 19:29:00,61.3,44.5,30.45,West,280,3.0,3.0,54,0.00,,---,0.00,VWS V14.01,2013-05-01 23:29:00,
2013-05-01 19:34:00,60.8,44.1,30.45,SW,226,0.0,2.0,54,0.00,,---,0.00,VWS V14.01,2013-05-01 23:34:00,
2013-05-01 19:39:00,60.5,44.3,30.45,SSE,147,0.0,2.0,55,0.00,,---,0.00,VWS V14.01,2013-05-01 23:39:00,
2013-05-01 19:45:00,60.0,43.8,30.45,SW,218,1.0,2.0,55,0.00,,---,0.00,VWS V14.01,2013-05-01 23:45:00,
2013-05-01 19:49:00,59.7,44.0,30.46,West,259,0.0,2.0,56,0.00,,---,0.00,VWS V14.01,2013-05-01 23:49:00,
2013-05-01 19:55:00,59.4,43.7,30.46,SE,135,0.0,2.0,56,0.00,,---,0.00,VWS V14.01,2013-05-01 23:55:00,
2013-05-01 19:59:00,59.1,43.9,30.46,SE,124,0.0,2.0,57,0.00,,---,0.00,VWS V14.01,2013-05-01 23:59:00,
2013-05-01 20:05:00,58.8,43.6,30.46,SE,138,0.0,2.0,57,0.00,,---,0.00,VWS V14.01,2013-05-02 00:05:00,
2013-05-01 20:10:00,58.5,43.8,30.47,WNW,295,0.0,2.0,58,0.00,,---,0.00,VWS V14.01,2013-05-02 00:10:00,
2013-05-01 20:15:00,58.2,43.5,30.46,SE,127,0.0,2.0,58,0.00,,---,0.00,VWS V14.01,2013-05-02 00:15:00,
2013-05-01 20:20:00,57.9,43.7,30.46,SE,127,0.0,2.0,59,0.00,,---,0.00,VWS V14.01,2013-05-02 00:20:00,
2013-05-01 20:25:00,57.6,43.4,30.47,SE,127,0.0,2.0,59,0.00,,---,0.00,VWS V14.01,2013-05-02 00:25:00,
2013-05-01 20:29:00,57.3,43.5,30.47,WSW,238,0.0,2.0,60,0.00,,---,0.00,VWS V14.01,2013-05-02 00:29:00,
2013-05-01 20:35:00,57.0,43.3,30.47,WSW,248,0.0,0.0,60,0.00,,---,0.00,VWS V14.01,2013-05-02 00:35:00,
2013-05-01 20:40:00,56.8,43.5,30.47,WSW,247,0.0,0.0,61,0.00,,---,0.00,VWS V14.01,2013-05-02 00:40:00,
2013-05-01 20:44:00,56.5,43.2,30.47,WSW,248,0.0,0.0,61,0.00,,---,0.00,VWS V14.01,2013-05-02 00:44:00,
2013-05-01 20:49:00,56.2,43.4,30.47,WSW,248,0.0,0.0,62,0.00,,---,0.00,VWS V14.01,2013-05-02 00:49:00,
2013-05-01 20:54:00,56.0,43.2,30.47,WNW,285,0.0,0.0,62,0.00,,---,0.00,VWS V14.01,2013-05-02 00:54:00,
2013-05-01 20:59:00,55.8,43.0,30.48,West,276,0.0,0.0,62,0.00,,---,0.00,VWS V14.01,2013-05-02 00:59:00,
2013-05-01 21:04:00,55.6,43.2,30.48,West,276,0.0,0.0,63,0.00,,---,0.00,VWS V14.01,2013-05-02 01:04:00,
2013-05-01 21:09:00,55.4,43.8,30.48,West,276,0.0,0.0,65,0.00,,---,0.00,VWS V14.01,2013-05-02 01:09:00,
2013-05-01 21:14:00,55.1,44.0,30.48,West,275,0.0,0.0,66,0.00,,---,0.00,VWS V14.01,2013-05-02 01:14:00,
2013-05-01 21:19:00,54.8,44.1,30.48,West,276,0.0,0.0,67,0.00,,---,0.00,VWS V14.01,2013-05-02 01:19:00,
2013-05-01 21:24:00,54.4,44.1,30.48,West,276,0.0,0.0,68,0.00,,---,0.00,VWS V14.01,2013-05-02 01:24:00,
2013-05-01 21:29:00,53.9,43.6,30.48,West,276,0.0,0.0,68,0.00,,---,0.00,VWS V14.01,2013-05-02 01:29:00,
2013-05-01 21:34:00,53.6,43.7,30.48,West,275,0.0,0.0,69,0.00,,---,0.00,VWS V14.01,2013-05-02 01:34:00,
2013-05-01 21:39:00,53.2,43.7,30.48,West,275,0.0,0.0,70,0.00,,---,0.00,VWS V14.01,2013-05-02 01:39:00,
2013-05-01 21:44:00,52.9,43.4,30.48,West,276,0.0,0.0,70,0.00,,---,0.00,VWS V14.01,2013-05-02 01:44:00,
2013-05-01 21:49:00,52.6,43.5,30.49,West,276,0.0,0.0,71,0.00,,---,0.00,VWS V14.01,2013-05-02 01:49:00,
2013-05-01 21:54:00,52.3,43.9,30.49,West,276,0.0,0.0,73,0.00,,---,0.00,VWS V14.01,2013-05-02 01:54:00,
2013-05-01 21:59:00,52.1,43.7,30.49,West,275,0.0,0.0,73,0.00,,---,0.00,VWS V14.01,2013-05-02 01:59:00,
2013-05-01 22:04:00,51.8,43.8,30.49,West,276,0.0,0.0,74,0.00,,---,0.00,VWS V14.01,2013-05-02 02:04:00,
2013-05-01 22:09:00,51.5,44.2,30.49,West,276,0.0,0.0,76,0.00,,---,0.00,VWS V14.01,2013-05-02 02:09:00,
2013-05-01 22:14:00,51.2,43.9,30.49,West,276,0.0,0.0,76,0.00,,---,0.00,VWS V14.01,2013-05-02 02:14:00,
2013-05-01 22:19:00,51.0,43.7,30.49,West,276,0.0,0.0,76,0.00,,---,0.00,VWS V14.01,2013-05-02 02:19:00,
2013-05-01 22:24:00,50.8,43.5,30.49,West,275,0.0,0.0,76,0.00,,---,0.00,VWS V14.01,2013-05-02 02:24:00,
2013-05-01 22:29:00,50.5,43.6,30.49,West,276,0.0,0.0,77,0.00,,---,0.00,VWS V14.01,2013-05-02 02:29:00,
2013-05-01 22:34:00,50.2,43.6,30.49,West,276,0.0,0.0,78,0.00,,---,0.00,VWS V14.01,2013-05-02 02:34:00,
2013-05-01 22:39:00,50.1,43.8,30.49,West,275,0.0,0.0,79,0.00,,---,0.00,VWS V14.01,2013-05-02 02:39:00,
2013-05-01 22:44:00,49.9,43.7,30.49,West,276,0.0,0.0,79,0.00,,---,0.00,VWS V14.01,2013-05-02 02:44:00,
2013-05-01 22:49:00,49.7,43.8,30.49,West,276,0.0,0.0,80,0.00,,---,0.00,VWS V14.01,2013-05-02 02:49:00,
2013-05-01 22:54:00,49.4,43.8,30.49,West,275,0.0,0.0,81,0.00,,---,0.00,VWS V14.01,2013-05-02 02:54:00,
2013-05-01 22:59:00,49.2,43.6,30.49,West,276,0.0,0.0,81,0.00,,---,0.00,VWS V14.01,2013-05-02 02:59:00,
2013-05-01 23:04:00,49.0,43.8,30.49,West,276,0.0,0.0,82,0.00,,---,0.00,VWS V14.01,2013-05-02 03:04:00,
2013-05-01 23:09:00,48.8,43.6,30.49,West,276,0.0,0.0,82,0.00,,---,0.00,VWS V14.01,2013-05-02 03:09:00,
2013-05-01 23:14:00,48.5,43.6,30.49,West,276,0.0,0.0,83,0.00,,---,0.00,VWS V14.01,2013-05-02 03:14:00,
2013-05-01 23:19:00,48.4,43.8,30.49,West,275,0.0,0.0,84,0.00,,---,0.00,VWS V14.01,2013-05-02 03:19:00,
2013-05-01 23:24:00,48.3,43.7,30.49,West,276,0.0,0.0,84,0.00,,---,0.00,VWS V14.01,2013-05-02 03:24:00,
2013-05-01 23:29:00,48.2,43.6,30.49,West,276,0.0,0.0,84,0.00,,---,0.00,VWS V14.01,2013-05-02 03:29:00,
2013-05-01 23:34:00,48.0,43.7,30.49,West,275,0.0,0.0,85,0.00,,---,0.00,VWS V14.01,2013-05-02 03:34:00,
2013-05-01 23:39:00,47.7,43.4,30.49,West,276,0.0,0.0,85,0.00,,---,0.00,VWS V14.01,2013-05-02 03:39:00,
2013-05-01 23:44:00,47.5,43.2,30.49,West,276,0.0,0.0,85,0.00,,---,0.00,VWS V14.01,2013-05-02 03:44:00,
2013-05-01 23:49:00,47.3,43.3,30.49,West,275,0.0,0.0,86,0.00,,---,0.00,VWS V14.01,2013-05-02 03:49:00,
2013-05-01 23:54:00,47.2,43.5,30.49,West,276,0.0,0.0,87,0.00,,---,0.00,VWS V14.01,2013-05-02 03:54:00,
2013-05-01 23:59:00,47.0,43.3,30.49,West,276,0.0,0.0,87,0.00,,---,0.00,VWS V14.01,2013-05-02 03:59:00,